Weather History for KPHF - March, 2014

Change the Weather History Date:

Thursday, March 13, 2014

  Actual Average Record
Temperature  
Mean Temperature 38 °F -  
Max Temperature 46 °F 60 °F 84 °F (2006)
Min Temperature 28 °F 40 °F 23 °F (1974)
Degree Days  
Heating Degree Days 27    
Moisture  
Dew Point 6 °F    
Average Humidity 28    
Maximum Humidity 45    
Minimum Humidity 14    
Precipitation  
Precipitation 0.00 in - - ()
Sea Level Pressure  
Sea Level Pressure 29.89 in    
Wind  
Wind Speed 16 mph (NW)    
Max Wind Speed 22 mph    
Max Gust Speed 36 mph    
Visibility 10 miles    
Events Snow    
Averages and records for this station are not official NWS values.
T = Trace of Precipitation, MM = Missing Value Source: NWS Daily Summary

Daily Weather History Graph

Daily Weather History Graph

Search for Another Location

Airport or City:

Trip Planner

Search our weather history database for the weather conditions in past years. The results will help you decide how hot, cold, wet, or windy it might be!

Date:

Astronomy

Mar. 13, 2014 Rise Set
Actual Time 7:19 AM EDT 7:11 PM EDT
Civil Twilight 6:54 AM EDT 7:37 PM EDT
Nautical Twilight 6:23 AM EDT 8:07 PM EDT
Astronomical Twilight 5:53 AM EDT 8:38 PM EDT
Moon 4:38 PM EDT (3/13) 5:22 AM EDT (3/13)
Length of Visible Light 12h 43m
Length of Day
11h 51m
Waxing Gibbous, 91% of the Moon is Illuminated
Mar 13
Waxing Gibbous
Mar 16
Full
Mar 23
Last Quarter
Mar 30
New
Apr 7
First Quarter

Hourly Weather History & Observations

Time (EDT) Temp. Windchill Dew Point Humidity Pressure Visibility Wind Dir Wind Speed Gust Speed Precip Events Conditions
12:54 AM 48.0 °F - 26.1 °F 42% 29.47 in 10.0 mi NW 21.9 mph 27.6 mph N/A   Clear
1:54 AM 43.0 °F 34.5 °F 21.0 °F 42% 29.55 in 10.0 mi NW 19.6 mph 27.6 mph N/A   Clear
2:54 AM 39.9 °F 33.9 °F 19.9 °F 45% 29.59 in 10.0 mi NW 9.2 mph 18.4 mph N/A   Clear
3:54 AM 39.9 °F 31.4 °F 19.0 °F 43% 29.62 in 10.0 mi NW 16.1 mph 23.0 mph N/A   Clear
4:54 AM 39.0 °F 31.0 °F 16.0 °F 39% 29.64 in 10.0 mi NW 13.8 mph 29.9 mph N/A   Clear
5:54 AM 37.9 °F 29.6 °F 17.1 °F 43% 29.67 in 10.0 mi NW 13.8 mph 24.2 mph N/A   Clear
6:54 AM 37.0 °F 28.1 °F 15.1 °F 41% 29.71 in 10.0 mi NW 15.0 mph 25.3 mph N/A   Clear
7:54 AM 36.0 °F 27.1 °F 9.0 °F 33% 29.77 in 10.0 mi NW 13.8 mph 28.8 mph 0.00 in   Clear
8:54 AM 36.0 °F 25.3 °F 3.9 °F 26% 29.82 in 9.0 mi WNW 19.6 mph 28.8 mph 0.00 in Snow Light Snow
9:54 AM 37.9 °F 27.9 °F 1.0 °F 21% 29.86 in 9.0 mi NW 19.6 mph 34.5 mph 0.00 in   Clear
10:54 AM 37.0 °F 26.7 °F -0.9 °F 20% 29.89 in 9.0 mi WNW 19.6 mph 32.2 mph N/A   Clear
11:54 AM 37.9 °F 27.3 °F -0.0 °F 20% 29.91 in 10.0 mi WNW 21.9 mph 33.4 mph N/A   Clear
12:54 PM 41.0 °F 33.5 °F 1.0 °F 19% 29.94 in 10.0 mi NW 13.8 mph 25.3 mph N/A   Clear
1:54 PM 42.1 °F 32.8 °F -0.0 °F 17% 29.94 in 10.0 mi WNW 21.9 mph 35.7 mph N/A   Clear
2:54 PM 41.0 °F 32.8 °F -2.0 °F 16% 29.96 in 10.0 mi NW 16.1 mph 28.8 mph N/A   Clear
3:54 PM 42.1 °F 34.5 °F -0.0 °F 17% 29.98 in 10.0 mi WNW 15.0 mph 26.5 mph N/A   Clear
4:54 PM 42.1 °F 35.2 °F -2.0 °F 16% 30.00 in 10.0 mi WNW 12.7 mph 23.0 mph N/A   Clear
5:54 PM 42.1 °F 35.7 °F -4.0 °F 14% 30.03 in 10.0 mi WNW 11.5 mph 21.9 mph N/A   Clear
6:54 PM 39.9 °F 31.1 °F -4.0 °F 16% 30.06 in 10.0 mi WNW 17.3 mph 26.5 mph N/A   Clear
7:54 PM 37.9 °F 34.4 °F -2.9 °F 18% 30.10 in 10.0 mi NNW 4.6 mph - N/A   Clear
8:54 PM 36.0 °F 32.1 °F -2.0 °F 20% 30.15 in 10.0 mi NNW 4.6 mph - N/A   Clear
9:54 PM 35.1 °F 32.2 °F -0.0 °F 23% 30.18 in 10.0 mi NW 3.5 mph - N/A   Clear
10:54 PM 28.9 °F - 10.0 °F 45% 30.22 in 10.0 mi Calm Calm - N/A   Clear
11:54 PM 28.0 °F 24.2 °F 9.0 °F 45% 30.23 in 10.0 mi North 3.5 mph - N/A   Clear